Total_Precipitation_Accumulation
1.15 1.23 1.27 1.28 1.22 1.31 1.32 1.32 1.36 1.39 1.32 1.35 1.42 1.50 1.47 1.53 1.65 1.74 1.62 1.66 1.76 1.91 1.85 1.84 1.89 1.97 1.91 1.82 1.88 1.94 2.05 2.29 2.25 1.85 1.78 1.76 1.64 1.45 1.32 1.24 1.19 1.27 1.30
1.10 1.22 1.30 1.44 1.39 1.31 1.29 1.33 1.38 1.47 1.51 1.47 1.51 1.54 1.44 1.47 1.66 1.74 1.72 1.74 1.77 1.79 1.95 2.17 2.14 2.12 2.02 1.88 1.96 1.92 1.96 2.23 2.14 1.89 1.92 1.93 1.86 1.63 1.51 1.39 1.23 1.21 1.28
1.15 1.23 1.37 1.45 1.35 1.31 1.42 1.49 1.51 1.64 1.76 1.79 1.77 1.67 1.58 1.55 1.62 1.71 1.79 1.82 1.86 1.92 2.03 2.12 2.15 2.28 2.14 2.04 1.98 1.94 1.99 2.15 2.22 2.06 2.01 2.14 2.07 1.83 1.70 1.50 1.31 1.33 1.19
1.18 1.34 1.41 1.44 1.42 1.41 1.49 1.56 1.58 1.66 1.82 1.96 1.92 1.84 1.80 1.70 1.58 1.57 1.61 1.69 1.87 2.02 2.07 1.98 2.05 2.26 2.31 2.27 2.10 2.04 2.12 2.25 2.30 2.26 2.21 2.29 2.29 2.22 2.04 1.77 1.63 1.52 1.37
1.31 1.46 1.50 1.60 1.64 1.68 1.76 1.76 1.70 1.71 1.76 1.94 2.01 2.02 1.96 1.81 1.58 1.60 1.71 1.71 1.87 1.93 1.89 1.79 1.78 1.96 2.16 2.25 2.06 2.04 2.16 2.18 2.18 2.23 2.23 2.28 2.30 2.42 2.27 1.98 1.77 1.64 1.43
1.44 1.74 1.78 1.85 1.87 1.95 2.10 2.18 2.11 2.09 2.18 2.23 2.19 2.14 2.05 1.70 1.74 1.73 1.71 1.73 1.83 1.87 1.84 1.78 1.66 1.62 1.64 1.79 1.94 2.06 2.19 2.16 2.15 2.29 2.45 2.50 2.48 2.47 2.43 2.22 1.96 1.73 1.58
1.60 1.84 2.01 2.09 2.14 2.21 2.31 2.33 2.28 2.40 2.57 2.59 2.47 2.30 2.16 2.05 1.93 1.71 1.66 1.58 1.60 1.64 1.69 1.69 1.45 1.32 1.42 1.37 1.54 1.69 1.82 1.90 1.92 2.07 2.23 2.35 2.46 2.59 2.60 2.37 2.17 1.98 1.72
1.88 2.01 2.12 2.13 2.16 2.21 2.28 2.23 2.27 2.42 2.49 2.51 2.45 2.32 2.22 2.12 1.97 1.64 1.54 1.35 1.40 1.46 1.49 1.48 1.42 1.36 1.35 1.40 1.42 1.41 1.40 1.48 1.59 1.60 1.73 1.97 2.22 2.42 2.56 2.46 2.34 2.04 1.74
1.90 1.93 1.93 2.02 2.13 2.19 2.23 2.27 2.30 2.29 2.18 2.10 2.08 2.09 2.06 2.10 2.02 1.65 1.45 1.31 1.43 1.46 1.47 1.49 1.51 1.43 1.54 1.41 1.37 1.42 1.44 1.47 1.52 1.56 1.57 1.73 1.98 2.16 2.24 2.29 2.27 2.12 1.87
1.91 1.92 1.90 1.99 2.07 2.14 2.19 2.25 2.20 2.13 2.07 2.03 1.96 1.98 1.97 1.95 1.91 1.53 1.39 1.33 1.46 1.48 1.53 1.53 1.52 1.40 1.40 1.25 1.19 1.32 1.35 1.39 1.44 1.45 1.47 1.50 1.58 1.89 2.18 2.00 2.00 2.02 1.84
1.66 1.74 1.84 1.98 2.08 2.11 2.15 2.14 2.07 1.99 2.02 2.05 1.99 1.92 1.88 1.84 1.86 1.57 1.38 1.26 1.43 1.60 1.59 1.54 1.51 1.43 1.16 1.08 1.04 1.06 1.11 1.15 1.26 1.26 1.21 1.23 1.32 1.48 1.71 1.78 1.74 1.68 1.63
1.49 1.54 1.56 1.65 1.79 1.84 1.92 1.89 1.91 1.88 1.86 1.85 1.80 1.72 1.69 1.69 1.59 1.45 1.24 1.11 1.18 1.35 1.48 1.49 1.50 1.35 1.08 0.95 0.84 0.82 0.80 0.76 0.86 0.99 1.05 1.07 1.12 1.23 1.37 1.51 1.57 1.58 1.47
1.38 1.43 1.47 1.47 1.61 1.73 1.80 1.76 1.74 1.73 1.67 1.61 1.54 1.50 1.51 1.50 1.43 1.21 1.02 0.92 0.96 1.08 1.26 1.41 1.33 1.15 0.97 0.82 0.77 0.72 0.66 0.62 0.72 0.86 0.93 0.96 0.98 1.06 1.29 1.56 1.72 1.77 1.66
1.43 1.40 1.43 1.47 1.57 1.77 1.85 1.73 1.63 1.55 1.48 1.45 1.41 1.41 1.46 1.48 1.41 1.19 0.98 0.84 0.87 0.95 1.04 1.14 1.15 1.13 1.07 0.99 0.88 0.78 0.69 0.72 0.81 0.88 0.99 1.09 1.19 1.26 1.34 1.47 1.66 1.72 1.71
1.20 1.15 1.12 1.19 1.33 1.52 1.62 1.60 1.45 1.38 1.43 1.44 1.40 1.36 1.31 1.27 1.30 1.22 1.04 0.98 1.00 1.05 1.04 1.09 1.11 1.20 1.25 1.25 1.21 1.12 1.04 1.00 0.95 0.93 1.06 1.18 1.22 1.26 1.29 1.38 1.53 1.56 1.46
1.13 1.08 1.07 1.07 1.15 1.34 1.54 1.62 1.49 1.29 1.31 1.28 1.20 1.14 1.11 1.06 1.05 1.03 0.97 0.92 0.96 0.99 0.94 1.07 1.22 1.33 1.41 1.43 1.41 1.31 1.17 1.06 0.99 1.01 1.08 1.16 1.21 1.23 1.27 1.38 1.48 1.49 1.36
1.19 1.13 1.09 1.07 1.10 1.20 1.42 1.64 1.69 1.47 1.26 1.16 1.01 0.89 0.84 0.82 0.85 0.89 0.93 0.88 0.84 0.80 0.76 0.93 1.11 1.20 1.28 1.29 1.29 1.22 1.18 1.13 1.12 1.15 1.21 1.26 1.31 1.30 1.31 1.34 1.42 1.45 1.35
1.17 1.13 1.02 0.98 1.04 1.15 1.36 1.64 1.81 1.75 1.56 1.29 1.00 0.81 0.75 0.70 0.72 0.80 0.85 0.78 0.72 0.65 0.62 0.74 0.87 0.99 1.11 1.23 1.30 1.28 1.26 1.24 1.18 1.15 1.23 1.25 1.28 1.32 1.30 1.27 1.32 1.40 1.37
1.09 1.09 1.05 1.03 1.06 1.10 1.29 1.56 1.75 1.81 1.71 1.53 1.17 0.85 0.71 0.65 0.66 0.76 0.76 0.71 0.72 0.69 0.66 0.69 0.74 0.87 1.04 1.21 1.31 1.37 1.37 1.31 1.20 1.18 1.19 1.23 1.24 1.29 1.27 1.22 1.27 1.38 1.39
0.95 0.97 0.88 0.87 0.93 0.95 1.04 1.25 1.49 1.64 1.58 1.48 1.25 0.85 0.60 0.55 0.62 0.78 0.83 0.88 0.88 0.80 0.74 0.75 0.78 0.86 1.01 1.18 1.28 1.32 1.36 1.30 1.25 1.22 1.19 1.23 1.25 1.26 1.25 1.21 1.22 1.30 1.28
0.85 0.85 0.77 0.69 0.74 0.81 0.89 1.07 1.33 1.52 1.47 1.35 1.18 0.84 0.63 0.60 0.70 0.81 0.94 0.98 0.96 0.89 0.84 0.79 0.78 0.84 0.96 1.11 1.19 1.23 1.28 1.26 1.20 1.20 1.18 1.21 1.26 1.27 1.33 1.34 1.30 1.32 1.34
0.69 0.71 0.67 0.65 0.72 0.77 0.79 0.96 1.22 1.39 1.34 1.25 1.14 0.92 0.77 0.75 0.83 0.92 0.96 0.92 0.87 0.80 0.76 0.79 0.81 0.86 0.93 1.01 1.09 1.19 1.25 1.25 1.23 1.21 1.21 1.24 1.29 1.29 1.33 1.35 1.31 1.30 1.31
0.55 0.55 0.55 0.55 0.60 0.65 0.76 0.95 1.10 1.17 1.14 1.08 0.96 0.84 0.81 0.82 0.83 0.88 0.92 0.90 0.84 0.79 0.77 0.81 0.86 0.89 0.93 0.96 1.00 1.09 1.15 1.14 1.14 1.16 1.23 1.28 1.30 1.30 1.31 1.32 1.29 1.31 1.28
0.52 0.55 0.59 0.62 0.65 0.74 0.84 0.95 0.99 0.97 0.92 0.89 0.85 0.85 0.87 0.88 0.84 0.83 0.86 0.86 0.87 0.87 0.86 0.84 0.86 0.87 0.88 0.89 0.92 0.94 0.98 0.96 0.93 0.96 1.03 1.11 1.17 1.19 1.22 1.27 1.28 1.29 1.29
0.51 0.55 0.59 0.67 0.73 0.80 0.87 0.93 0.92 0.89 0.82 0.79 0.79 0.82 0.84 0.81 0.84 0.86 0.88 0.87 0.86 0.83 0.78 0.78 0.80 0.78 0.76 0.74 0.73 0.75 0.81 0.75 0.68 0.71 0.79 0.93 1.02 1.06 1.08 1.14 1.21 1.26 1.29
0.51 0.51 0.56 0.62 0.64 0.69 0.80 0.89 0.87 0.79 0.72 0.70 0.72 0.77 0.77 0.76 0.79 0.82 0.83 0.86 0.86 0.84 0.82 0.80 0.75 0.74 0.72 0.71 0.70 0.72 0.68 0.58 0.53 0.55 0.58 0.71 0.87 0.95 1.00 1.06 1.11 1.21 1.23